| time (UTC) | temp F | wind direction | speed MPH | gust MPH | rain 1hr in | rain 24hr in | rain mn in | humidity % | barometer mb |
| 20260503214854 | 43 | 220 | 7.0 | 0.0 | 0.00 | 0.00 | 0.00 | 66 | 1019.0 |
| 20260503213350 | 43 | 220 | 7.0 | 0.0 | 0.00 | 0.00 | 0.00 | 66 | 1019.0 |
| 20260503211851 | 43 | 240 | 8.0 | 0.0 | 0.00 | 0.00 | 0.00 | 71 | 1019.0 |
| 20260503210350 | 43 | 240 | 8.0 | 0.0 | 0.00 | 0.00 | 0.00 | 71 | 1019.0 |
| 20260503204857 | 45 | 250 | 3.0 | 0.0 | 0.00 | 0.00 | 0.00 | 66 | 1019.0 |
| 20260503203512 | 45 | 250 | 3.0 | 0.0 | 0.00 | 0.00 | 0.00 | 66 | 1019.0 |
| 20260503201851 | 45 | 0 | 0.0 | 0.0 | 0.00 | 0.00 | 0.00 | 61 | 1019.0 |
| 20260503200400 | 45 | 0 | 0.0 | 0.0 | 0.00 | 0.00 | 0.00 | 61 | 1019.0 |
| 20260503194916 | 46 | 320 | 6.0 | 0.0 | 0.00 | 0.00 | 0.00 | 57 | 1019.0 |
| 20260503193514 | 46 | 320 | 6.0 | 0.0 | 0.00 | 0.00 | 0.00 | 57 | 1019.0 |
| 20260503191848 | 48 | 290 | 8.0 | 0.0 | 0.00 | 0.00 | 0.00 | 50 | 1019.0 |
| 20260503190351 | 48 | 290 | 8.0 | 0.0 | 0.00 | 0.00 | 0.00 | 50 | 1019.0 |
| 20260503185012 | 50 | 270 | 5.0 | 0.0 | 0.00 | 0.00 | 0.00 | 47 | 1019.0 |
| 20260503183350 | 50 | 270 | 5.0 | 0.0 | 0.00 | 0.00 | 0.00 | 47 | 1019.0 |
| 20260503181850 | 50 | 260 | 6.0 | 0.0 | 0.00 | 0.00 | 0.00 | 50 | 1018.0 |
| 20260503180350 | 50 | 260 | 6.0 | 0.0 | 0.00 | 0.00 | 0.00 | 50 | 1018.0 |
| 20260503174910 | 52 | 260 | 5.0 | 0.0 | 0.00 | 0.00 | 0.00 | 44 | 1018.0 |
| 20260503173415 | 52 | 260 | 5.0 | 0.0 | 0.00 | 0.00 | 0.00 | 44 | 1018.0 |
| 20260503171850 | 54 | 280 | 8.0 | 0.0 | 0.00 | 0.00 | 0.00 | 41 | 1018.0 |
| 20260503170351 | 54 | 280 | 8.0 | 0.0 | 0.00 | 0.00 | 0.00 | 41 | 1018.0 |
| 20260503150350 | 57 | 2.0 | 0.0 | 0.00 | 0.00 | 0.00 | 29 | 1019.0 | |
| 20260503130351 | 55 | 190 | 8.0 | 0.0 | 0.00 | 0.00 | 0.00 | 31 | 1020.0 |
| 20260503110411 | 52 | 330 | 7.0 | 0.0 | 0.00 | 0.00 | 0.00 | 35 | 1022.0 |
| 20260503090411 | 48 | 3.0 | 0.0 | 0.00 | 0.00 | 0.00 | 40 | 1023.0 | |
| 20260503080401 | 46 | 3.0 | 0.0 | 0.00 | 0.00 | 0.00 | 57 | 1023.0 | |
| 20260503071849 | 41 | 2.0 | 0.0 | 0.00 | 0.00 | 0.00 | 87 | 1023.0 | |
| 20260503070351 | 41 | 2.0 | 0.0 | 0.00 | 0.00 | 0.00 | 87 | 1023.0 | |
| 20260503054850 | 34 | 1.0 | 0.0 | 0.00 | 0.00 | 0.00 | 100 | 1023.0 | |
| 20260503053350 | 34 | 1.0 | 0.0 | 0.00 | 0.00 | 0.00 | 100 | 1023.0 | |
| 20260503050350 | 32 | 0 | 0.0 | 0.0 | 0.00 | 0.00 | 0.00 | 100 | 1023.0 |
| 20260503043351 | 30 | 2.0 | 0.0 | 0.00 | 0.00 | 0.00 | 100 | 1023.0 | |
| 20260503041850 | 30 | 0 | 0.0 | 0.0 | 0.00 | 0.00 | 0.00 | 93 | 1022.0 |
| 20260503040413 | 30 | 0 | 0.0 | 0.0 | 0.00 | 0.00 | 0.00 | 93 | 1022.0 |
| 20260503033350 | 30 | 2.0 | 0.0 | 0.00 | 0.00 | 0.00 | 93 | 1022.0 | |
| 20260503030350 | 28 | 2.0 | 0.0 | 0.00 | 0.00 | 0.00 | 100 | 1022.0 | |
| 20260503023351 | 28 | 240 | 2.0 | 0.0 | 0.00 | 0.00 | 0.00 | 100 | 1022.0 |
| 20260503020350 | 28 | 2.0 | 0.0 | 0.00 | 0.00 | 0.00 | 100 | 1022.0 | |
| 20260503013350 | 30 | 250 | 3.0 | 0.0 | 0.00 | 0.00 | 0.00 | 100 | 1022.0 |
| 20260503010351 | 30 | 250 | 3.0 | 0.0 | 0.00 | 0.00 | 0.00 | 100 | 1022.0 |
| 20260503003350 | 30 | 2.0 | 0.0 | 0.00 | 0.00 | 0.00 | 100 | 1022.0 | |
| 20260503000350 | 32 | 220 | 3.0 | 0.0 | 0.00 | 0.00 | 0.00 | 93 | 1022.0 |
| 20260502234850 | 32 | 270 | 3.0 | 0.0 | 0.00 | 0.00 | 0.00 | 93 | 1022.0 |
| 20260502233350 | 32 | 270 | 3.0 | 0.0 | 0.00 | 0.00 | 0.00 | 93 | 1022.0 |
| 20260502231851 | 32 | 220 | 7.0 | 0.0 | 0.00 | 0.00 | 0.00 | 93 | 1022.0 |
| 20260502230351 | 32 | 220 | 7.0 | 0.0 | 0.00 | 0.00 | 0.00 | 93 | 1022.0 |
| 20260502224847 | 34 | 210 | 7.0 | 0.0 | 0.00 | 0.00 | 0.00 | 93 | 1022.0 |
| 20260502223350 | 34 | 210 | 7.0 | 0.0 | 0.00 | 0.00 | 0.00 | 93 | 1022.0 |
| 20260502221850 | 34 | 220 | 8.0 | 0.0 | 0.00 | 0.00 | 0.00 | 93 | 1022.0 |
| 20260502220350 | 34 | 220 | 8.0 | 0.0 | 0.00 | 0.00 | 0.00 | 93 | 1022.0 |